Regional Weather Roundup
Issued by NWS

Home | Current Version | Previous Version | Graphics & Text | Print | Product List | Glossary On
Versions: 1 2 3 4 5 6 7 8 9 10 11 12 13 14 15 16 17 18 19 20 21 22 23 24 25 26 27 28 29 30 31 32 33 34 35 36 37 38 39 40 41 42 43 44 45 46 47 48 49 50
413
ASUS43 KMPX 121101
RWRMN
WEATHER ROUNDUP FOR MINNESOTA
NATIONAL WEATHER SERVICE TWIN CITIES/CHANHASSEN MN
500 AM CST FRI FEB 12 2016


NOTE: "FAIR" INDICATES FEW OR NO CLOUDS BELOW 12,000 FEET WITH NO
SIGNIFICANT WEATHER AND/OR OBSTRUCTIONS TO VISIBILITY. N/A MEANS
CURRENT SKY AND/OR WEATHER CONDITIONS ARE NOT AVAILABLE.

MNZ060>063-068>070-121200-
   Twin Cities Metro

CITY           SKY/WX    TMP DP  RH WIND       PRES   REMARKS
TWIN CITIES    PTCLDY    11   4  73 NW13      30.26R WCI  -4
ST PAUL        CLEAR     11   4  73 NW13      30.27R WCI  -4
CRYSTAL        CLEAR     10   3  73 NW10      30.25R WCI  -4
BLAINE         CLEAR     10   5  79 NW14      30.24R WCI  -5
LAKEVILLE      CLEAR     10   7  85 NW13      30.24R WCI  -5
EDEN PRAIRIE   CLEAR     12   4  70 NW12      30.26R WCI  -2
SOUTH ST PAUL  CLEAR     13   5  71 NW12      30.25R WCI  -1
LAKE ELMO      FAIR      12   5  73 NW9       30.23R WCI   0
$$
MNZ001>005-007-008-013>017-022>024-027-028-121200-
   Northwest Minnesota

CITY           SKY/WX    TMP DP  RH WIND       PRES   REMARKS
BEMIDJI        CLEAR     -5 -10  80 NW15      30.29R WCI -26
HALLOCK        CLEAR     -4 -11  71 N17       30.46R WCI -26
ROSEAU         CLEAR     -8 -15  71 NW16      30.38R WCI -30
WARROAD        CLEAR     -9 -15  77 NW13      30.35R WCI -30
THIEF RVR FALL CLEAR     -4 -17  54 NW14      30.39R WCI -24
CROOKSTON      CLEAR     -2  -8  78 N15       30.45R WCI -22
FOSSTON        CLEAR     -8 -11  84 NW9       30.36R WCI -25
DETROIT LAKES  CLEAR      1  -4  78 NW15      30.34R WCI -18
MOORHEAD       CLEAR      1  -6  71 N15       30.42R WCI -18
PARK RAPIDS    CLEAR     -1  -8  72 NW9       30.27R WCI -16
MAHNOMEN       FAIR      -4 -10  76 NW12      30.35R WCI -22
$$
MNZ006-009>011-018-025>026-121200-
   North Central Minnesota

CITY           SKY/WX    TMP DP  RH WIND       PRES   REMARKS
BAUDETTE       CLEAR     -8 -15  71 NW16      30.29R WCI -30
FLAG ISLAND    CLEAR     -9 -17  70 NW22      30.33R WCI -35
INTL FALLS     PTCLDY    -7 -13  75 NW15      30.24R HAZE    WCI -28
WASKISH        CLEAR     -8 -11  84 W8        30.30R WCI -23
LONGVILLE      PTCLDY     0  -6  78 NW8       30.25R WCI -15
GRAND RAPIDS   MOCLDY     0  -8  71 NW17G24   30.20R WCI -21
CRANE LAKE     CLOUDY    -6  -9  84 NW7       30.21R WCI -20
ORR            PTCLDY    -6 -11  77 NW8       30.15R WCI -21
COOK           PTCLDY    -6  -9  84 W5        30.17R WCI -17
WALKER         FAIR      -2  -7  78 NW13      30.27R WCI -20
$$
MNZ012-019>021-037-121200-
   Northeast Minnesota

CITY           SKY/WX    TMP DP  RH WIND       PRES   REMARKS
DULUTH         PTCLDY     1  -6  72 NW14      30.13R WCI -17
ELY            CLOUDY    -2  -9  71 NW12G17   30.11R WCI -20
HIBBING        CLEAR     -2  -8  76 NW20G25   30.16R WCI -24
EVELETH        CLEAR      0  -8  71 NW13G23   30.15R WCI -18
DULUTH HARBOR  CLEAR      7  -2  66 NW13      30.23R WCI  -9
TWO HARBORS    CLEAR      3  -6  66 W10G18    30.11R WCI -12
SILVER BAY     CLEAR      1  -8  66 W5G17     30.09R WCI  -8
GRAND MARAIS     N/A      3  -6  66 CALM      30.12R
G MARAIS ARPRT CLEAR     -6 -13  71 NW9G21    29.97R HAZE    WCI -22
$$
MNZ029>031-032-039>041-046>048-054>057-064-121200-
   West Central Minnesota

CITY           SKY/WX    TMP DP  RH WIND       PRES   REMARKS
FERGUS FALLS   CLEAR      3  -2  78 N14G20    30.41R WCI -15
WHEATON        CLOUDY     9   0  66 NW15G22   30.42R WCI  -8
MORRIS         CLEAR      7   1  78 N18       30.34R WCI -12
ALEXANDRIA     CLEAR      4  -2  76 NW16      30.29R WCI -15
ELBOW LAKE     FAIR       5   1  82 NW16      30.35R WCI -14
WADENA         CLEAR      1  -6  71 NW10      30.29R WCI -14
GLENWOOD       CLEAR      3   0  85 NW13G18   30.30R WCI -14
APPLETON       CLOUDY    12   7  79 NW17      30.37R WCI  -5
BENSON         CLEAR      9   1  72 N14       30.34R WCI  -8
ORTONVILLE     FLURRIES  10   5  79 N10       30.37R WCI  -3
MADISON        MOCLDY    12   7  79 NW14      30.37R WCI  -3
WILLMAR        FAIR       9   7  92 NW10      30.32R WCI  -6
$$
MNZ033>034-036-042>043-049>051-058-059-121200-
   Central Minnesota

CITY           SKY/WX    TMP DP  RH WIND       PRES   REMARKS
ST CLOUD       CLEAR      2  -2  83 NW9       30.27R WCI -13
SAUK CENTRE    FAIR       3  -1  81 NW12      30.29R WCI -13
PAYNESVILLE    CLEAR      6   2  85 W7        30.30R WCI  -6
AITKIN         PTCLDY     7  -4  61 NW8       30.22R WCI  -6
PINE RIVER     PTCLDY     1  -4  78 NW6       30.28S WCI -10
BRAINERD       CLEAR      2  -5  72 NW13      30.26R WCI -15
STAPLES        CLEAR      1  -6  71 NW12      30.29R WCI -15
LONG PRAIRIE   FAIR       5   0  78 NW10G17   30.28R WCI -10
LITTLE FALLS   CLEAR      7   0  72 NW9G18    30.29R WCI  -7
LITCHFIELD     CLEAR      9   5  85 NW9G17    30.29R WCI  -5
BUFFALO        CLEAR      8   3  78 NW10      30.28R WCI  -6
MAPLE LAKE     CLEAR      9   4  81 NW9       30.28R WCI  -4
$$
MNZ037-044-045-052-053-121200-
   East Central Minnesota

CITY           SKY/WX    TMP DP  RH WIND       PRES   REMARKS
PRINCETON      CLEAR      7   1  78 W8        30.25R WCI  -6
MORA           CLEAR      9   1  72 NW9       30.25R WCI  -5
CAMBRIDGE      CLEAR      9   0  66 NW8       30.23R WCI  -4
RUSH CITY      PTCLDY     9   1  68 NW9       30.24R WCI  -4
MOOSE LAKE     PTCLDY     5  -4  66 NW7       30.19R WCI  -7
HINCKLEY       FAIR       9   1  72 NW8       30.22R WCI  -4
CLOQUET        CLEAR      3  -4  72 NW9G17    30.16R WCI -11
MCGREGOR       PTCLDY     5   0  78 NW10G18   30.22R WCI -10
$$
MNZ071>073-080-081-089-090-097-098-121200-
   Southwest Minnesota

CITY           SKY/WX    TMP DP  RH WIND       PRES   REMARKS
MONTEVIDEO     CLOUDY    10   7  85 N14       30.36R WCI  -5
GRANITE FALLS  CLOUDY    12   8  85 NW14      30.36R WCI  -3
CANBY          CLOUDY    15  11  85 W10G17    30.37R WCI   2
MARSHALL       CLOUDY    11   7  84 N16       30.34R WCI  -6
REDWOOD FALLS  CLOUDY    11   6  81 NW10G21   30.32R WCI  -3
OLIVIA         CLOUDY    12   9  85 NW13      30.31R WCI  -3
PIPESTONE      CLOUDY    14   7  73 N9G21     30.29R WCI   2
WINDOM         FLURRIES  10   9  92 NW17      30.28R WCI  -7
WORTHINGTON    CLOUDY    10   7  85 N22       30.28R WCI  -9
JACKSON        LGT SNOW  14   9  79 NW16      30.27R WCI  -2
TRACY          FLURRIES  12   8  86 NW13      30.32R WCI  -3
SLAYTON        CLOUDY    10   8  92 NW15      30.30R WCI  -6
$$
MNZ065>067-074>077-082>085-091>093-121200-
   South Central Minnesota

CITY           SKY/WX    TMP DP  RH WIND       PRES   REMARKS
MANKATO        CLOUDY    16   9  73 NW16G23   30.26R WCI   0
NEW ULM        CLOUDY    12   7  79 NW14      30.28R WCI  -3
ST JAMES       LGT SNOW  14  10  85 NW20      30.30R WCI  -3
FAIRMONT       CLOUDY    14   9  79 NW16      30.26R WCI  -2
GLENCOE        CLEAR     12   8  81 NW14G20   30.27R WCI  -3
FARIBAULT      MOCLDY    12   9  85 NW10G17   30.24R WCI  -1
OWATONNA       CLOUDY    14   9  79 NW16      30.23R WCI  -2
WASECA         CLOUDY    14  10  85 NW13      30.26R WCI   0
ALBERT LEA     MOCLDY    16  12  86 NW13G18   30.22R WCI   2
$$
MNZ078>079-086>088-094>096-121200-
   Southeast Minnesota

CITY           SKY/WX    TMP DP  RH WIND       PRES   REMARKS
ROCHESTER      CLOUDY    12   8  84 NW15      30.17R WCI  -4
RED WING       CLEAR     12   7  79 NW7       30.22R WCI   2
STANTON        CLEAR     13   7  76 NW9       30.23R WCI   1
DODGE CENTER   CLOUDY    12   9  85 NW12      30.19R WCI  -2
WINONA         CLOUDY    16  10  79 NW6       30.21R WCI   7
AUSTIN         CLOUDY    12  10  92 NW12      30.20R WCI  -2
PRESTON        CLOUDY    12   8  83 NW12      30.17R WCI  -2
$$
ABBREVIATIONS USED IN REMARKS
   TC - TEMPERATURES IN CELSIUS
  WCI - WIND CHILL INDEX
   HX - HEAT INDEX
  VSB - VISIBILITY
$$




USA.gov is the U.S. government's official web portal to all federal, state and local government web resources and services.